Location: Unspecified
(0.0000°N, 0.0000°E)
Time: 13:36:45
(UTC+00:00)

SR - Pass Details

Date: 28 November 2019
Orbit: 573 x 882 km, 66.7° (Epoch: 08 December)

Event Time Altitude Azimuth Distance (km) Brightness Sun altitude
Rises 23:41:04 0° 314° (NW) 3,307 - -68.5°
Reaches altitude 10° 23:44:09 10° 298° (WNW) 2,324 - -68.6°
Maximum altitude 23:47:59 20° 252° (WSW) 1,662 - -68.6°
Drops below altitude 10° 23:51:37 10° 205° (SSW) 2,178 - -68.6°
Sets 23:54:25 0° 188° (S) 3,037 - -68.6°
